• In Moldova, Republic
  • List of Countries
  • For 7 days
  • Water Temperature
  • Satellite Maps
  • Weather Map
  • Weather Widgets
  • user-avatar
    Login

    Hourly Weather Townsville

    Today, 22 September, Saturday

    Time Temperature Precipitation Wind Pressure Humidity
    00:00 +19°C° 0 mm 6 mps 759 mmHg 80%
    01:00 +19°C° 0 mm 6 mps 759 mmHg 84%
    02:00 +19°C° 0 mm 6 mps 759 mmHg 86%
    03:00 +17°C° 0 mm 6 mps 758 mmHg 88%
    04:00 +17°C° 0 mm 5 mps 758 mmHg 90%
    05:00 +17°C° 0 mm 5 mps 758 mmHg 88%
    06:00 +17°C° 0 mm 5 mps 759 mmHg 85%
    07:00 +19°C° 0 mm 5 mps 759 mmHg 82%
    08:00 +21°C° 0 mm 6 mps 759 mmHg 71%
    09:00 +24°C° 0 mm 6 mps 759 mmHg 60%
    10:00 +28°C° 0 mm 6 mps 759 mmHg 47%
    11:00 +28°C° 0 mm 7 mps 759 mmHg 46%
    12:00 +28°C° 0 mm 7 mps 758 mmHg 45%
    13:00 +29°C° 0 mm 7 mps 758 mmHg 44%
    14:00 +28°C° 0 mm 7 mps 758 mmHg 45%
    15:00 +28°C° 0 mm 7 mps 757 mmHg 46%
    16:00 +28°C° 0 mm 7 mps 757 mmHg 47%
    17:00 +26°C° 0 mm 7 mps 757 mmHg 54%
    18:00 +24°C° 0 mm 6 mps 758 mmHg 62%
    19:00 +22°C° 0 mm 6 mps 758 mmHg 69%
    20:00 +22°C° 0 mm 6 mps 758 mmHg 72%
    21:00 +21°C° 0 mm 6 mps 759 mmHg 75%
    22:00 +20°C° 0 mm 6 mps 759 mmHg 78%
    23:00 +20°C° 0 mm 6 mps 759 mmHg 81%

    Tomorrow, 23 September, Sunday

    Time Temperature Precipitation Wind Pressure Humidity
    00:00 +19°C° 0 mm 6 mps 759 mmHg 84%
    01:00 +19°C° 0 mm 6 mps 758 mmHg 87%
    02:00 +17°C° 0 mm 5 mps 758 mmHg 88%
    03:00 +17°C° 0 mm 5 mps 758 mmHg 90%
    04:00 +17°C° 0 mm 5 mps 758 mmHg 91%
    05:00 +17°C° 0 mm 5 mps 758 mmHg 89%
    06:00 +17°C° 0 mm 5 mps 758 mmHg 87%
    07:00 +19°C° 0 mm 5 mps 758 mmHg 85%
    08:00 +21°C° 0 mm 5 mps 758 mmHg 72%
    09:00 +24°C° 0 mm 6 mps 758 mmHg 59%
    10:00 +28°C° 0 mm 6 mps 758 mmHg 47%
    11:00 +29°C° 0 mm 6 mps 758 mmHg 43%
    12:00 +30°C° 0 mm 6 mps 757 mmHg 39%
    13:00 +32°C° 0 mm 6 mps 756 mmHg 35%
    14:00 +32°C° 0 mm 7 mps 756 mmHg 38%
    15:00 +30°C° 0 mm 7 mps 756 mmHg 40%
    16:00 +29°C° 0 mm 7 mps 755 mmHg 42%
    17:00 +27°C° 0 mm 7 mps 756 mmHg 50%
    18:00 +24°C° 0 mm 7 mps 756 mmHg 58%
    19:00 +22°C° 0 mm 6 mps 756 mmHg 66%
    20:00 +22°C° 0 mm 6 mps 757 mmHg 70%
    21:00 +21°C° 0 mm 6 mps 757 mmHg 74%
    22:00 +20°C° 0 mm 6 mps 758 mmHg 78%
    23:00 +20°C° 0 mm 5 mps 757 mmHg 81%

    Day after tomorrow, 24 September, Monday

    Time Temperature Precipitation Wind Pressure Humidity
    00:00 +19°C° 0 mm 5 mps 757 mmHg 85%
    01:00 +19°C° 0 mm 4 mps 757 mmHg 88%
    02:00 +18°C° 0 mm 4 mps 757 mmHg 90%
    03:00 +18°C° 0 mm 4 mps 756 mmHg 92%
    04:00 +18°C° 0 mm 4 mps 756 mmHg 94%
    05:00 +18°C° 0 mm 4 mps 756 mmHg 91%
    06:00 +19°C° 0 mm 4 mps 757 mmHg 89%
    07:00 +20°C° 0 mm 4 mps 757 mmHg 87%
    08:00 +22°C° 0 mm 4 mps 757 mmHg 72%
    09:00 +26°C° 0 mm 5 mps 757 mmHg 57%
    10:00 +29°C° 0 mm 5 mps 757 mmHg 41%
    11:00 +30°C° 0 mm 5 mps 757 mmHg 38%
    12:00 +32°C° 0 mm 6 mps 756 mmHg 34%
    13:00 +33°C° 0 mm 6 mps 756 mmHg 30%
    14:00 +32°C° 0 mm 7 mps 755 mmHg 33%
    15:00 +30°C° 0 mm 7 mps 755 mmHg 37%
    16:00 +29°C° 0 mm 7 mps 754 mmHg 41%
    17:00 +27°C° 0 mm 7 mps 755 mmHg 49%
    18:00 +24°C° 0 mm 7 mps 755 mmHg 58%
    19:00 +22°C° 0 mm 6 mps 755 mmHg 67%
    20:00 +22°C° 0 mm 6 mps 756 mmHg 70%
    21:00 +21°C° 0 mm 6 mps 756 mmHg 74%
    22:00 +21°C° 0 mm 6 mps 757 mmHg 78%
    23:00 +20°C° 0 mm 6 mps 757 mmHg 81%

    25 September, Tuesday

    Time Temperature Precipitation Wind Pressure Humidity
    00:00 +20°C° 0 mm 5 mps 756 mmHg 84%
    01:00 +19°C° 0 mm 5 mps 756 mmHg 87%
    02:00 +19°C° 0 mm 5 mps 756 mmHg 89%
    03:00 +17°C° 0 mm 5 mps 756 mmHg 90%
    04:00 +17°C° 0 mm 5 mps 755 mmHg 92%
    05:00 +19°C° 0 mm 5 mps 756 mmHg 90%
    06:00 +19°C° 0 mm 5 mps 756 mmHg 88%
    07:00 +20°C° 0 mm 5 mps 757 mmHg 86%
    08:00 +22°C° 0 mm 5 mps 757 mmHg 72%
    09:00 +26°C° 0 mm 6 mps 757 mmHg 59%
    10:00 +28°C° 0 mm 6 mps 757 mmHg 45%
    11:00 +29°C° 0 mm 6 mps 757 mmHg 42%
    12:00 +30°C° 0 mm 7 mps 756 mmHg 38%
    13:00 +32°C° 0 mm 7 mps 755 mmHg 34%
    14:00 +30°C° 0 mm 7 mps 755 mmHg 39%
    15:00 +29°C° 0 mm 7 mps 755 mmHg 44%
    16:00 +28°C° 0 mm 7 mps 754 mmHg 49%
    17:00 +26°C° 0.1 mm 7 mps 755 mmHg 57%
    18:00 +24°C° 0.1 mm 7 mps 755 mmHg 65%
    19:00 +22°C° 0.1 mm 6 mps 756 mmHg 73%
    20:00 +21°C° 0 mm 6 mps 756 mmHg 76%
    21:00 +21°C° 0 mm 6 mps 757 mmHg 78%
    22:00 +20°C° 0 mm 6 mps 757 mmHg 81%
    23:00 +20°C° 0 mm 6 mps 757 mmHg 84%

    26 September, Wednesday

    Time Temperature Precipitation Wind Pressure Humidity
    00:00 +20°C° 0 mm 6 mps 757 mmHg 87%
    01:00 +19°C° 0 mm 6 mps 756 mmHg 90%
    02:00 +19°C° 0 mm 6 mps 756 mmHg 91%
    03:00 +17°C° 0 mm 5 mps 756 mmHg 92%
    04:00 +17°C° 0 mm 5 mps 756 mmHg 94%
    05:00 +19°C° 0 mm 5 mps 756 mmHg 91%
    06:00 +19°C° 0 mm 5 mps 757 mmHg 89%
    07:00 +20°C° 0 mm 5 mps 757 mmHg 86%
    08:00 +22°C° 0 mm 6 mps 757 mmHg 74%
    09:00 +26°C° 0 mm 6 mps 757 mmHg 61%
    10:00 +28°C° 0 mm 7 mps 757 mmHg 49%
    11:00 +29°C° 0.1 mm 7 mps 757 mmHg 47%
    12:00 +29°C° 0.1 mm 7 mps 756 mmHg 45%
    13:00 +29°C° 0.1 mm 7 mps 755 mmHg 43%
    14:00 +29°C° 0 mm 7 mps 755 mmHg 44%
    15:00 +29°C° 0 mm 7 mps 755 mmHg 44%
    16:00 +29°C° 0 mm 7 mps 755 mmHg 44%
    17:00 +27°C° 0 mm 6 mps 755 mmHg 51%
    18:00 +24°C° 0 mm 6 mps 756 mmHg 58%
    19:00 +22°C° 0 mm 6 mps 756 mmHg 65%
    20:00 +22°C° 0 mm 5 mps 757 mmHg 69%
    21:00 +21°C° 0 mm 5 mps 757 mmHg 72%
    22:00 +20°C° 0 mm 5 mps 757 mmHg 76%
    23:00 +19°C° 0 mm 5 mps 757 mmHg 79%

    27 September, Thursday

    Time Temperature Precipitation Wind Pressure Humidity
    00:00 +19°C° 0 mm 5 mps 757 mmHg 81%
    01:00 +19°C° 0 mm 5 mps 757 mmHg 84%
    02:00 +19°C° 0 mm 5 mps 757 mmHg 85%
    03:00 +19°C° 0 mm 5 mps 756 mmHg 87%
    04:00 +17°C° 0 mm 5 mps 756 mmHg 88%
    05:00 +19°C° 0 mm 4 mps 757 mmHg 85%
    06:00 +20°C° 0 mm 4 mps 757 mmHg 81%
    07:00 +20°C° 0 mm 4 mps 758 mmHg 78%
    08:00 +23°C° 0 mm 5 mps 758 mmHg 67%
    09:00 +26°C° 0 mm 5 mps 758 mmHg 57%
    10:00 +28°C° 0 mm 5 mps 758 mmHg 46%
    11:00 +28°C° 0 mm 5 mps 757 mmHg 45%
    12:00 +28°C° 0 mm 6 mps 756 mmHg 44%
    13:00 +28°C° 0 mm 6 mps 756 mmHg 43%
    14:00 +28°C° 0 mm 6 mps 755 mmHg 43%
    15:00 +28°C° 0 mm 6 mps 755 mmHg 42%
    16:00 +28°C° 0 mm 6 mps 755 mmHg 41%
    17:00 +26°C° 0 mm 6 mps 755 mmHg 50%
    18:00 +23°C° 0 mm 5 mps 756 mmHg 58%
    19:00 +21°C° 0 mm 5 mps 756 mmHg 66%
    20:00 +21°C° 0 mm 5 mps 756 mmHg 72%
    21:00 +20°C° 0 mm 5 mps 757 mmHg 78%
    22:00 +20°C° 0 mm 4 mps 757 mmHg 83%
    23:00 +20°C° 0 mm 4 mps 757 mmHg 85%
    Show more